Location: Cazavet
(43.0017°N, 1.0431°E)
Time: 20:52:29
(UTC+00:00)

DMSP B5D1-3 - Pass Details

Date: 18 January 2026
Orbit: 758 x 772 km, 98.5° (Epoch: 10 February)

Event Time Altitude Azimuth Distance (km) Brightness Sun altitude
Rises 06:05:01 0° 173° (S) 3,211 8.0 -14.0°
Reaches altitude 10° 06:07:20 10° 177° (S) 2,287 7.2 -13.6°
Maximum altitude 06:12:20 63° 259° (WSW) 845 4.5 -12.8°
Drops below altitude 10° 06:17:21 10° 340° (NNW) 2,298 6.6 -11.9°
Sets 06:19:41 0° 344° (NNW) 3,228 7.4 -11.5°
